SCP
0 0 0 0 0 0 0 0 0 0 0 0 0 0 0 0 0 0 0 0 0 0 1 1 1 1 1 2 2 3 2 2 2 2 3 2 2 1 0 0 0 0 0
0 0 0 0 0 0 0 0 0 0 0 0 0 0 0 0 0 0 0 0 0 0 0 1 0 1 1 1 2 3 3 2 2 2 3 2 2 1 0 0 0 0 0
0 0 0 0 0 0 0 0 0 0 0 0 0 0 0 0 0 0 0 0 0 0 0 0 0 0 1 1 1 2 3 3 3 3 3 2 2 1 0 0 0 0 0
0 0 0 0 0 0 0 0 0 0 0 0 0 0 0 0 0 0 0 0 0 0 0 0 0 0 0 0 1 1 2 3 3 3 3 2 2 1 0 0 0 0 0
0 0 0 0 0 0 0 0 0 0 0 0 0 0 0 0 0 0 0 0 0 0 0 0 0 1 1 1 0 1 1 2 3 3 3 2 2 1 1 0 0 0 0
0 0 0 0 0 0 0 0 0 0 0 0 0 0 0 0 0 0 0 0 0 0 0 0 0 1 1 1 1 0 1 1 2 2 2 2 2 1 1 1 0 0 0
0 0 0 0 0 0 0 0 0 0 0 0 0 0 0 0 0 0 0 0 0 0 0 0 0 0 0 1 1 1 1 1 1 2 2 2 2 1 1 1 1 0 0
0 0 0 0 0 0 0 0 0 0 0 0 0 0 0 0 0 0 0 0 0 0 0 0 0 0 0 0 0 1 1 1 1 2 2 2 2 1 1 1 1 1 1
0 0 0 0 0 0 0 0 0 0 0 0 0 0 0 0 0 0 0 0 0 0 0 0 0 0 0 0 0 0 0 0 1 2 2 2 1 1 1 1 1 1 1
0 0 0 0 0 0 0 0 0 0 0 0 0 0 0 0 0 0 0 0 0 0 0 0 0 0 0 0 0 0 0 0 0 1 2 1 1 1 1 1 1 1 1
0 0 0 0 0 0 0 0 0 0 0 0 0 0 0 0 0 0 0 0 0 0 0 0 0 0 0 0 0 0 0 0 0 0 1 1 1 1 1 1 1 1 1
0 0 0 0 0 0 0 0 0 0 0 0 0 0 0 0 0 0 0 0 0 0 0 0 0 0 0 0 0 0 0 0 0 0 0 0 0 1 1 1 1 1 1
0 0 0 0 0 0 0 0 0 0 0 0 0 0 0 0 0 0 0 0 0 0 0 0 0 0 0 0 0 0 0 0 0 0 0 0 0 0 1 1 1 1 0
0 0 0 0 0 0 0 0 0 0 0 0 0 0 0 0 0 0 0 0 0 0 0 0 0 0 0 0 0 0 0 0 0 0 0 0 0 0 0 1 1 0 0
0 0 0 0 0 0 0 0 0 0 0 0 0 0 0 0 0 0 0 0 0 0 0 0 0 0 0 0 0 0 0 0 0 0 0 0 0 0 0 1 1 0 0
0 0 0 0 0 0 0 0 0 0 0 0 0 0 0 0 0 0 0 0 0 0 0 0 0 0 0 0 0 0 0 0 0 0 0 0 0 0 0 1 1 0 0
0 0 0 0 0 0 0 0 0 0 0 0 0 0 0 0 0 0 0 0 0 0 0 0 0 0 0 0 0 0 0 0 0 0 0 0 0 0 0 0 0 0 0
0 0 0 0 0 0 0 0 0 0 0 0 0 0 0 0 0 0 0 0 0 0 0 0 0 0 0 0 0 0 0 0 0 0 0 0 0 0 0 0 0 0 0
0 0 0 0 0 0 0 0 0 0 0 0 0 0 0 0 0 0 0 0 0 0 0 0 0 0 0 0 0 0 0 0 0 0 0 0 0 0 0 0 0 0 0
0 0 0 0 0 0 0 0 0 0 0 0 0 0 0 0 0 0 0 0 0 0 0 0 0 0 0 0 0 0 0 0 0 0 0 0 0 0 0 0 0 0 0
0 0 0 0 0 0 0 0 0 0 0 0 0 0 0 0 0 0 0 0 0 0 0 0 0 0 0 0 0 0 0 0 0 0 0 0 0 0 0 0 0 0 0
0 0 0 0 0 0 0 0 0 0 0 0 0 0 0 0 0 0 0 0 0 0 0 0 0 0 0 0 0 0 0 0 0 0 0 0 0 0 0 0 0 0 0
0 0 0 0 0 0 0 0 0 0 0 0 0 0 0 0 0 0 0 0 0 0 0 0 0 0 0 0 0 0 0 0 0 0 0 0 0 0 0 0 0 0 0
0 0 0 0 0 0 0 0 0 0 0 0 0 0 0 0 0 0 0 0 0 0 0 0 0 0 0 0 0 0 0 0 0 0 0 0 0 0 0 0 0 0 0
0 0 0 0 0 0 0 0 0 0 0 0 0 0 0 0 0 0 0 0 0 0 0 0 0 0 0 0 0 0 0 0 0 0 0 0 0 0 0 0 0 0 0
0 0 0 0 0 0 0 0 0 0 0 0 0 0 0 0 0 0 0 0 0 0 0 0 0 0 0 0 0 0 0 0 0 0 0 0 0 0 0 0 0 0 0
Wind_Speed
3 3 2 2 2 2 2 2 2 2 2 2 2 3 3 2 2 2 2 5 5 5 4 3 3 2 2 2 2 2 2 2 3 3 3 3 3 3 3 3 3 3 3
3 3 3 2 2 2 2 1 2 2 2 2 2 2 2 2 2 2 2 3 5 5 5 4 4 4 2 2 1 1 1 2 2 2 2 2 2 3 2 3 2 3 3
3 3 3 2 1 2 2 2 2 2 2 2 2 2 2 2 2 3 3 2 3 5 5 5 5 5 4 3 2 2 1 1 1 1 1 2 2 2 1 1 1 1 2
4 3 3 2 2 2 2 2 2 2 2 1 1 2 1 1 2 2 2 3 2 3 4 5 5 5 5 4 3 2 2 0 0 1 0 1 1 1 1 1 0 0 0
4 3 3 2 2 2 2 2 2 1 1 1 1 1 1 1 1 1 2 2 2 2 2 4 5 5 5 5 4 3 3 2 1 1 0 1 1 1 1 1 1 1 1
3 3 3 3 3 2 2 2 2 1 1 1 1 2 1 1 1 1 1 1 2 2 3 3 3 3 5 5 5 5 5 4 3 2 2 2 2 2 2 2 2 2 2
3 3 3 3 3 2 2 2 2 2 2 1 2 2 2 1 1 1 1 1 2 2 2 2 2 2 2 5 5 6 6 5 4 3 3 2 2 2 2 2 3 3 3
3 3 3 3 3 3 3 2 3 2 1 1 1 1 1 2 1 1 1 1 1 1 2 2 2 2 2 2 4 6 7 7 5 4 4 5 3 3 3 3 3 4 4
3 2 3 3 3 3 3 3 2 2 1 0 0 1 1 2 2 2 1 1 1 1 2 2 2 2 2 2 3 5 6 7 6 6 5 6 5 4 4 4 4 5 5
3 2 2 3 3 2 2 2 2 1 2 1 0 0 1 1 1 2 2 1 1 2 2 2 2 2 2 2 3 4 6 7 6 6 6 6 6 5 5 5 5 5 6
2 2 2 2 2 2 3 2 2 2 2 2 1 1 1 1 1 2 3 3 2 2 2 2 2 2 2 2 2 4 5 5 6 6 6 6 6 5 5 5 5 6 6
2 2 2 2 2 2 2 2 3 3 2 2 1 1 1 1 2 1 2 3 4 3 3 2 2 2 2 2 3 5 5 6 6 6 6 5 6 4 4 5 5 5 6
1 2 2 2 2 2 2 2 2 2 2 2 2 2 2 2 2 2 2 2 3 3 2 2 2 2 2 2 3 5 4 5 6 6 6 5 6 4 4 4 5 5 5
1 1 2 2 2 2 2 2 2 2 2 2 2 2 1 1 1 2 2 2 3 3 3 4 2 2 2 2 4 6 4 5 6 5 4 5 6 4 4 4 5 5 6
1 1 1 2 2 1 2 2 2 2 1 2 2 2 1 1 1 1 1 1 2 4 5 3 2 1 2 2 4 3 3 5 6 5 4 5 6 5 5 5 5 6 6
1 1 1 1 1 1 2 2 1 2 2 2 1 2 2 1 1 1 1 1 2 3 4 2 2 2 2 3 5 3 3 6 5 5 5 5 6 6 6 5 5 6 5
1 1 1 1 1 1 1 2 2 2 3 2 2 2 3 2 2 2 2 2 2 2 5 4 2 2 2 3 4 3 3 3 3 5 6 6 6 6 5 5 6 6 6
1 1 1 1 1 1 1 2 3 3 3 3 3 3 3 2 3 2 2 3 3 3 3 5 3 2 3 3 3 4 3 3 3 5 6 6 7 6 6 6 6 6 6
1 1 1 1 1 2 2 2 2 3 3 4 4 4 4 3 4 3 3 3 3 2 2 3 4 3 2 2 3 4 3 3 3 4 5 6 7 7 6 6 6 6 6
1 1 1 2 2 2 2 2 2 3 3 3 3 3 4 4 4 4 3 3 3 3 3 3 3 3 2 2 2 3 3 3 3 3 4 5 5 6 6 7 7 7 7
1 1 1 1 2 2 2 2 3 3 3 3 3 3 4 4 5 4 4 3 3 3 3 3 3 3 3 2 3 2 4 4 4 2 3 3 3 3 3 5 6 7 8
1 1 1 1 2 2 3 4 3 3 3 3 3 3 3 3 4 5 6 6 5 5 4 4 4 4 4 4 3 3 3 3 4 2 2 4 2 3 3 3 7 9 8
1 1 2 2 2 3 4 4 4 3 3 3 3 3 3 3 3 3 4 5 5 7 7 6 6 6 5 4 3 4 4 4 5 3 3 5 2 4 4 4 8 8 9
1 2 2 2 3 4 4 4 4 2 3 3 3 4 4 4 4 4 4 4 4 5 6 5 6 6 5 4 4 4 4 4 4 2 2 4 3 3 3 4 7 9 8
2 2 2 2 3 4 5 5 4 2 2 3 3 3 4 4 6 6 4 4 5 5 6 7 7 7 6 6 4 2 2 2 4 3 2 2 3 3 4 4 4 7 8
3 2 2 2 3 4 5 5 4 2 3 3 3 3 5 6 7 7 5 4 5 5 4 4 4 5 4 4 4 4 3 3 3 3 2 2 2 1 3 2 2 3 4
Wind_Direction
104 90 81 67 60 57 56 59 77 72 66 56 55 58 44 31 27 19 12 21 16 16 23 35 47 64 76 97 94 82 81 88 66 90 92 84 82 83 85 86 78 66 54
114 108 95 81 65 61 59 67 78 76 64 58 49 45 45 33 26 19 11 11 18 19 21 27 32 31 35 46 59 92 97 67 88 73 102 93 94 93 82 75 70 63 54
119 115 109 96 82 75 72 73 68 68 64 54 43 33 38 35 24 17 14 9 5 15 21 20 21 20 18 26 29 37 64 42 106 46 121 120 110 111 110 88 62 56 41
118 117 112 108 102 97 91 91 80 70 59 53 38 22 24 30 22 15 19 17 8 360 7 13 10 7 1 359 356 354 334 309 154 89 59 158 144 130 138 151 131 56 6
125 123 119 114 112 104 95 95 82 85 83 62 37 18 15 2 345 5 14 12 10 1 351 1 4 4 358 347 339 340 335 329 308 229 309 201 180 197 220 236 247 248 274
131 131 123 115 109 103 93 93 92 74 93 89 49 25 7 335 330 347 339 343 358 7 2 358 351 352 359 351 341 335 332 324 330 309 270 236 203 223 239 237 243 256 266
134 138 132 127 121 120 122 117 105 92 60 56 62 23 357 4 327 324 324 343 346 351 3 1 349 347 343 345 340 333 327 317 300 321 305 281 224 230 244 244 252 255 263
143 144 144 144 139 127 118 118 108 112 86 50 79 72 343 330 346 338 333 343 328 343 360 357 358 355 339 333 338 337 329 321 308 312 311 311 266 248 251 249 256 264 267
147 152 156 149 148 148 157 157 145 139 154 241 81 147 167 231 309 307 294 304 318 330 324 324 334 335 334 335 325 334 334 323 311 304 300 308 288 265 262 262 263 266 265
148 151 152 155 158 159 163 170 165 163 157 187 272 306 234 181 188 279 294 303 316 308 295 307 314 313 313 310 325 338 337 332 321 311 299 299 294 274 269 270 272 269 269
137 142 145 154 162 165 169 169 173 171 179 191 188 217 280 307 226 219 269 289 296 283 283 280 279 291 294 299 310 326 333 333 327 321 308 303 299 280 278 277 274 273 273
149 148 146 155 166 174 177 181 182 184 198 194 199 199 205 214 220 218 248 274 278 281 284 266 262 278 290 304 316 329 332 331 324 317 311 311 308 286 284 285 283 280 280
171 180 164 171 179 191 185 171 172 187 197 199 210 229 234 240 235 232 238 264 273 283 272 258 248 258 276 289 298 311 309 313 315 310 309 304 310 306 300 294 291 291 290
177 180 184 179 183 187 184 179 182 194 196 206 221 227 248 261 254 243 228 236 275 275 266 261 256 233 267 283 296 305 297 303 308 309 316 317 315 308 305 300 296 290 288
150 149 179 187 184 190 196 187 192 201 201 217 230 231 243 262 264 267 261 240 236 264 268 254 251 274 287 283 301 305 297 303 305 305 308 313 316 303 294 292 290 288 288
152 155 184 186 199 204 204 199 211 210 199 222 235 232 246 258 254 256 255 258 247 249 263 269 272 293 291 294 306 301 298 311 305 308 312 310 309 300 292 288 291 291 292
164 174 199 199 201 217 214 206 218 219 214 225 235 232 247 253 249 251 250 251 252 248 262 279 281 297 282 285 303 298 292 289 293 309 308 305 302 298 300 300 300 296 295
167 183 197 206 218 220 221 221 229 224 219 225 232 235 246 245 246 247 244 248 250 251 256 273 282 282 276 275 286 286 292 286 283 296 300 301 300 296 295 297 301 302 300
176 184 185 208 225 226 224 234 235 237 235 233 232 233 243 240 248 251 249 249 252 262 261 265 277 282 280 280 292 293 290 284 279 284 290 292 292 290 290 292 299 302 299
183 204 215 219 226 228 232 238 244 246 248 252 248 243 241 235 240 243 248 248 249 254 261 265 273 283 282 284 281 294 303 300 290 283 279 284 288 289 290 290 291 291 290
213 220 226 236 236 232 236 238 244 248 249 255 257 254 253 254 256 251 250 245 244 245 251 263 268 274 274 277 271 285 291 302 295 268 287 284 279 269 272 280 286 285 285
239 241 239 241 254 262 273 272 267 251 251 252 261 267 266 260 269 272 271 267 259 250 250 254 259 259 264 267 273 273 285 295 288 273 291 284 267 269 273 266 279 285 287
246 255 254 243 252 264 274 275 276 268 254 249 252 261 273 273 266 265 273 278 273 270 260 253 255 255 256 249 249 260 260 267 271 275 288 282 269 269 274 281 295 290 284
253 256 257 253 260 267 277 278 278 264 256 258 253 251 257 264 263 267 263 263 266 270 266 258 253 258 257 244 230 244 256 277 288 282 274 270 277 272 283 281 289 286 285
261 259 261 254 260 277 282 281 282 260 262 268 267 261 258 259 269 275 266 264 269 275 285 276 272 271 268 259 247 238 237 255 277 271 256 259 280 291 284 274 278 290 290
263 269 271 257 254 268 278 280 279 257 262 269 273 268 262 267 271 272 260 255 263 272 281 286 284 284 274 251 245 231 221 233 257 267 233 225 252 306 300 278 274 291 294